Marshfield, WI

3:55 PM CDT on September 29, 2016 (GMT -0500)
Marshfield Municipal

Weather History for KMFI - October, 2013

Change the Weather History Date:

Friday, October 11, 2013

  Actual Average Record
Temperature  
Mean Temperature 60 °F -  
Max Temperature 73 °F 59 °F 82 °F (1928)
Min Temperature 48 °F 36 °F 18 °F (1987)
Degree Days  
Heating Degree Days 4    
Growing Degree Days 10 (Base 50)    
Moisture  
Dew Point 51 °F    
Average Humidity 74    
Maximum Humidity 93    
Minimum Humidity 48    
Precipitation  
Precipitation 0.00 in - - ()
Sea Level Pressure  
Sea Level Pressure 29.96 in    
Wind  
Wind Speed 8 mph (SE)    
Max Wind Speed 23 mph    
Max Gust Speed 31 mph    
Visibility 8 miles    
Events      
Averages and records for this station are not official NWS values.
T = Trace of Precipitation, MM = Missing Value Source: NWS Daily Summary

Daily Weather History Graph

Daily Weather History Graph

Search for Another Location

Airport or City:

Trip Planner

Search our weather history database for the weather conditions in past years. The results will help you decide how hot, cold, wet, or windy it might be!

Date:

Astronomy

Oct. 11, 2013 Rise Set
Actual Time 7:11 AM CDT 6:22 PM CDT
Civil Twilight 6:42 AM CDT 6:51 PM CDT
Nautical Twilight 6:08 AM CDT 7:25 PM CDT
Astronomical Twilight 5:34 AM CDT 7:59 PM CDT
Moon 2:00 PM CDT (10/11) No Moon Set
Length of Visible Light 12h 09m
Length of Day
11h 11m
Waxing Crescent, 47% of the Moon is Illuminated
Oct 11
Waxing Crescent
Oct 11
First Quarter
Oct 18
Full
Oct 26
Last Quarter
Nov 3
New

Hourly Weather History & Observations

Time (CDT) Temp. Dew Point Humidity Pressure Visibility Wind Dir Wind Speed Gust Speed Precip Events Conditions
12:54 AM 51.1 °F 46.9 °F 86% 30.03 in 10.0 mi SE 4.6 mph - N/A   Clear
1:54 AM 51.1 °F 46.9 °F 86% 30.03 in 9.0 mi East 3.5 mph - N/A   Clear
2:54 AM 50.0 °F 46.9 °F 89% 30.02 in 8.0 mi East 4.6 mph - N/A   Clear
3:54 AM 50.0 °F 46.9 °F 89% 30.03 in 6.0 mi ESE 4.6 mph - N/A   Clear
4:54 AM 48.9 °F 46.9 °F 93% 30.04 in 5.0 mi East 4.6 mph - N/A   Clear
5:54 AM 48.0 °F 46.0 °F 93% 30.03 in 4.0 mi East 5.8 mph - N/A   Clear
6:54 AM 48.0 °F 46.0 °F 93% 30.03 in 3.0 mi East 5.8 mph - N/A   Clear
7:07 AM 48.2 °F 46.4 °F 93% 30.02 in 2.5 mi East 4.6 mph - N/A   Clear
7:32 AM 48.2 °F 46.4 °F 93% 30.02 in 3.0 mi East 3.5 mph - N/A   Clear
7:54 AM 50.0 °F 46.9 °F 89% 30.03 in 3.0 mi East 4.6 mph - N/A   Clear
8:54 AM 53.1 °F 50.0 °F 89% 30.04 in 4.0 mi East 4.6 mph - N/A   Clear
9:54 AM 59.0 °F 52.0 °F 78% 30.03 in 7.0 mi ESE 6.9 mph - N/A   Clear
10:54 AM 64.9 °F 54.0 °F 68% 30.01 in 10.0 mi SSE 9.2 mph - N/A   Partly Cloudy
11:54 AM 70.0 °F 55.9 °F 61% 29.98 in 10.0 mi SSE 8.1 mph - N/A   Clear
12:54 PM 72.0 °F 57.0 °F 59% 29.95 in 10.0 mi SSE 17.3 mph 24.2 mph N/A   Clear
1:54 PM 73.0 °F 53.1 °F 49% 29.91 in 10.0 mi SSE 23.0 mph 31.1 mph N/A   Scattered Clouds
2:54 PM 73.9 °F 53.1 °F 48% 29.88 in 10.0 mi SE 20.7 mph 31.1 mph N/A   Scattered Clouds
3:54 PM 73.0 °F 54.0 °F 51% 29.87 in 10.0 mi SE 19.6 mph 31.1 mph N/A   Partly Cloudy
4:54 PM 72.0 °F 53.1 °F 51% 29.87 in 10.0 mi SSE 23.0 mph 31.1 mph N/A   Clear
5:54 PM 69.1 °F 53.1 °F 57% 29.87 in 10.0 mi SSE 18.4 mph 26.5 mph N/A   Clear
6:54 PM 66.9 °F 53.1 °F 61% 29.88 in 10.0 mi SSE 11.5 mph - N/A   Clear
7:54 PM 66.0 °F 54.0 °F 65% 29.88 in 10.0 mi SE 10.4 mph - N/A   Partly Cloudy
8:54 PM 66.0 °F 54.0 °F 65% 29.88 in 10.0 mi SE 10.4 mph 21.9 mph N/A   Scattered Clouds
9:54 PM 64.0 °F 53.1 °F 67% 29.87 in 10.0 mi SE 12.7 mph - N/A   Mostly Cloudy
10:54 PM 62.1 °F 52.0 °F 70% 29.86 in 10.0 mi SSE 16.1 mph 23.0 mph N/A   Mostly Cloudy
11:54 PM 61.0 °F 51.1 °F 70% 29.85 in 10.0 mi SSE 11.5 mph - N/A   Overcast